This is the latest recevied weather packets stored in our database for station/object KH6DH-13. If no packets are shown the sender has not sent any weather packets the latest 10 day(s).
| Time | Temp. | Humidity | Pressure | Rain* | Wind** | Luminosity | Snow |
|---|---|---|---|---|---|---|---|
| 1787962592 | 30° C | - | - | 0 mm | 1.79 m/s, 15° | - | - |
| 1787961991 | 30° C | - | - | 0 mm | 0.89 m/s, 37° | - | - |
| 1787961393 | 30° C | - | - | 0 mm | 2.24 m/s, 24° | - | - |
| 1787960789 | 29.44° C | - | - | 0 mm | 2.24 m/s, 32° | - | - |
| 1787960185 | 30° C | - | - | 0 mm | 2.24 m/s, 68° | - | - |
| 1787959581 | 30° C | - | - | 0 mm | 3.13 m/s, 120° | - | - |
| 1787958977 | 30° C | - | - | 0 mm | 1.34 m/s, 96° | - | - |
| 1787958373 | 29.44° C | - | - | 0 mm | 0.45 m/s, 65° | - | - |
| 1787957769 | 30° C | - | - | 0 mm | 2.24 m/s, 89° | - | - |
| 1787957166 | 29.44° C | - | - | 0 mm | 2.24 m/s, 103° | - | - |
| 1787956561 | 30° C | - | - | 0 mm | 0.89 m/s, 127° | - | - |
| 1787955958 | 30° C | - | - | 0 mm | 1.79 m/s, 38° | - | - |
| 1787955357 | 29.44° C | - | - | 0 mm | 2.24 m/s, 158° | - | - |
| 1787954750 | 28.89° C | - | - | 0 mm | 1.79 m/s, 80° | - | - |
| 1787954149 | 28.89° C | - | - | 0 mm | 1.79 m/s, 44° | - | - |
| 1787953548 | 28.33° C | - | - | 0 mm | 3.13 m/s, 111° | - | - |
| 1787952947 | 28.89° C | - | - | 0 mm | 1.79 m/s, 104° | - | - |
| 1787952346 | 28.89° C | - | - | 0 mm | 1.79 m/s, 80° | - | - |
| 1787951745 | 28.89° C | - | - | 0 mm | 0.45 m/s, 77° | - | - |
| 1787951144 | 28.33° C | - | - | 0 mm | 2.24 m/s, 145° | - | - |
| 1787950543 | 28.89° C | - | - | 0 mm | 0.45 m/s, 156° | - | - |
| 1787949942 | 28.89° C | - | - | 0 mm | 1.34 m/s, 34° | - | - |
| 1787949341 | 28.33° C | - | - | 0 mm | 1.79 m/s, 96° | - | - |
| 1787948740 | 28.33° C | - | - | 0 mm | 2.24 m/s, 94° | - | - |
| 1787948139 | 28.33° C | - | - | 0 mm | 1.34 m/s, 82° | - | - |
* Rain latest hour (hover to see other rain measurements)
** Current wind speed in m/s (hover to see current wind gust speed)